Location: Unspecified
(0.0000°N, 0.0000°E)
Time: 03:13:34
(UTC+00:00)

CZ-6A DEB - Pass Details

Date: 17 October 2025
Orbit: 818 x 870 km, 98.8° (Epoch: 17 November)

Event Time Altitude Azimuth Distance (km) Brightness Sun altitude
Rises 18:17:26 0° 183° (S) 3,374 ? -7.9°
Reaches altitude 10° 18:19:56 10° 191° (SSW) 2,445 ? -8.5°
Maximum altitude 18:24:53 37° 257° (WSW) 1,292 ? -9.8°
Drops below altitude 10° 18:29:53 10° 323° (NW) 2,468 ? -11.0°
Sets 18:32:26 0° 332° (NNW) 3,409 ? -11.6°
